Location: Bois
(49.5925°N, 1.7745°E)
Time: 21:27:50
(UTC+00:00)

Daily predictions for brighter satellites

Satellite Brightness Start Highest point End
(mag) Time Altitude Azimuth Time Altitude Azimuth Time Altitude Azimuth
ARIANE 5 R/B 2.6 17:27:59 10° SSE 17:33:06 87° ENE 17:38:13 10° NNW
Cosmos 2237 Rocket 3.1 17:31:38 10° NNW 17:36:29 28° NE 17:41:20 10° ESE
Cosmos 158 Rocket 4.4 17:32:15 10° S 17:36:42 38° ESE 17:41:12 10° NE
Cosmos 2322 Rocket 4.0 17:31:39 10° NW 17:36:46 37° WSW 17:41:52 10° S
Aureole 3 Rocket 4.2 17:33:44 10° NNE 17:36:52 19° ENE 17:39:30 10° ESE
ATLAS 5 CENTAUR R/B 1.8 17:33:57 10° NW 17:38:08 85° SW 17:43:22 10° SE
Meteor 1-28 Rocket 4.1 17:36:12 10° N 17:39:22 43° WNW 17:42:32 10° SW
Cosmos 1378 Rocket 3.8 17:36:03 10° SSE 17:40:09 44° E 17:44:15 10° NNE
SeaSat 1 2.6 17:35:28 10° SSE 17:40:22 84° WSW 17:45:18 10° NNW
Resurs 01 Rocket 2.7 17:38:18 10° ESE 17:41:46 23° ENE 17:45:15 10° N
USA 234 4.1 17:35:26 10° SE 17:41:51 56° SW 17:48:18 10° WNW
SKYMED 2 3.9 17:39:01 10° NNE 17:43:11 43° E 17:47:20 10° S
Cosmos 1459 Rocket 4.2 17:37:00 10° N 17:43:13 83° W 17:49:31 10° S
Thor Agena Rocket 4.3 17:38:33 10° S 17:43:34 59° WSW 17:48:40 10° NNW
GP-B 3.1 17:39:58 10° SSE 17:44:16 62° E 17:48:35 10° N
Cosmos 2219 Rocket 3.1 17:41:06 10° NW 17:46:33 55° WSW 17:51:58 10° S
Cosmos 1727 Rocket 4.5 17:40:54 10° SSW 17:47:03 66° WNW 17:53:14 10° N
COSMO-SKYMED 1 3.3 17:43:50 10° NE 17:47:25 28° E 17:50:59 10° SSE
Cosmos 2292 Rocket 2.4 17:46:44 10° S 17:49:36 71° E 17:52:36 10° NNE
CZ-4 R/B 4.3 17:46:35 10° SSE 17:50:32 74° ENE 17:54:31 10° N
SJ-12 4.2 17:47:14 10° S 17:51:01 66° WSW 17:54:49 10° NNW
NOSS 3-3 (A) 4.3 17:46:40 10° S 17:51:21 37° ESE 17:56:47 10° NE
PSLV R/B 4.0 17:47:45 10° SE 17:51:29 34° ENE 17:55:13 10° N
Cosmos 2322 3.7 17:46:02 10° NNW 17:51:46 73° ENE 17:57:28 10° SE
USA 306 1.5 17:50:13 10° WNW 17:53:18 64° NNE 17:55:02 14° ESE
IRS-P3 4.2 17:48:29 10° SSE 17:53:49 90° ENE 17:59:11 10° NNW
Cosmos 2016 Rocket 4.0 17:47:58 10° N 17:54:13 79° E 18:00:31 10° SSE
Resurs 1-3 3.6 17:50:54 10° SSE 17:55:08 60° ENE 17:59:23 10° N
Cosmos 1802 Rocket 4.2 17:51:09 10° N 17:57:35 85° W 18:04:00 10° S
Cosmos 1025 Rocket 3.5 17:54:31 10° SSE 17:58:30 38° E 18:02:31 10° NNE
Cosmos 2242 Rocket 3.6 17:54:14 10° S 17:58:37 86° W 18:03:01 10° N
Cosmos 2285 Rocket 4.3 17:52:27 10° NNW 17:58:39 46° ENE 18:04:47 10° SE
SJ-7 4.5 17:55:42 10° SE 17:59:12 43° ENE 18:02:42 10° N
SL-16 R/B 3.8 17:55:50 10° N 17:59:30 17° NE 18:02:27 12° ENE
SPOT 1/Viking Rocket 3.8 17:58:55 10° S 18:04:01 75° WSW 18:09:10 10° NNW
Cosmos 2227 Rocket 4.0 18:02:38 10° ESE 18:03:35 11° E 18:03:35 11° E
SJ-6B 3.6 18:05:43 10° ESE 18:08:27 23° ENE 18:11:13 10° NNE
NOSS 3-4 (A) 4.1 18:02:21 10° NW 18:08:30 45° NE 18:15:10 12° ESE
NOSS 3-4 (C) 4.1 18:02:35 10° NW 18:08:46 45° NE 18:15:23 12° ESE
Cosmos 2233 Rocket 4.0 18:03:53 10° N 18:10:10 78° E 18:16:29 10° SSE
SPOT 5 4.3 18:08:21 14° E 18:10:37 19° ENE 18:14:08 10° NNE
CZ-2D R/B 3.2 18:09:07 10° SSE 18:13:00 75° ENE 18:16:59 10° N
Cosmos 1674 Rocket 3.5 18:10:16 10° S 18:14:38 71° E 18:19:02 10° NNE
Cosmos 1725 Rocket 4.4 18:08:53 10° NNW 18:15:06 71° W 18:21:19 10° S
Cosmos 1315 Rocket 2.9 18:12:24 10° NNW 18:16:11 73° W 18:19:58 10° S
Meteor 1-11 4.2 18:12:23 10° S 18:18:00 82° E 18:23:44 10° NNE
Cosmos 1867 3.7 18:16:45 10° SW 18:22:11 77° NW 18:27:41 10° NE
SL-16 R/B 4.4 18:19:06 10° N 18:24:18 29° WNW 18:29:29 10° WSW
ATLAS 2AS CENTAUR R/B 3.9 18:18:28 10° W 18:24:41 34° NNW 18:30:48 10° NE
Cosmos 724 4.4 18:18:42 10° SW 18:24:53 89° NW 18:31:00 10° NE
Cosmos 2061 Rocket 4.0 18:18:56 10° N 18:25:23 87° E 18:31:43 10° S
Lacrosse 5 rocket 1.3 18:22:39 10° WSW 18:26:05 57° NNW 18:28:21 20° NE
CZ-4 R/B 3.3 18:28:09 12° NNE 18:28:09 12° NNE 18:28:50 10° NNE
Cosmos 2151 Rocket 4.1 18:26:39 10° NNW 18:31:06 65° W 18:35:32 10° S
Meteor 2-1 Rocket 4.3 18:25:24 10° NNW 18:31:13 90° SW 18:37:06 10° S
CZ-4C R/B 1.7 18:27:29 10° SW 18:31:42 76° SE 18:36:09 15° NE
Meteor 1-31 Rocket 4.2 18:32:59 18° NE 18:32:59 18° NE 18:34:28 10° NNE
Radarsat Rocket 4.1 18:29:12 10° SSE 18:35:02 81° WSW 18:41:19 10° NNW
CARTOSAT-1 3.4 18:30:52 10° SSE 18:35:05 88° ENE 18:39:19 10° NNW
IRAS Rocket 4.3 18:29:36 10° SE 18:35:06 61° ENE 18:40:40 10° NNW
NOSS 0 Rocket 4.1 18:31:17 10° NNW 18:37:34 81° WSW 18:43:47 10° SSE
CRYOSAT 2 4.5 18:32:49 10° NNE 18:37:36 51° E 18:42:21 10° SSE
Cosmos 1356 Rocket 4.2 18:34:56 10° NNW 18:38:44 50° W 18:42:33 10° S
USA 290 3.4 18:36:40 10° SW 18:39:42 41° WNW 18:42:46 10° NNE
Cosmos 1464 Rocket 4.2 18:39:35 10° N 18:45:44 47° ENE 18:51:47 10° SSE
USA 267 3.7 18:41:48 18° NE 18:46:42 55° NNW 18:53:03 10° W
ERS-1 Rocket 4.4 18:48:49 20° NE 18:48:49 20° NE 18:51:34 10° NNE
Cosmos 2297 Rocket 2.3 18:42:41 10° S 18:48:10 54° ESE 18:52:37 16° NE
Cosmos 1607 4.0 18:42:23 10° SW 18:48:31 78° NW 18:54:10 13° NE
Cosmos 1570 Rocket 4.2 18:44:16 10° S 18:49:18 46° ESE 18:52:48 19° NE
BREEZE-M DEB (TANK) 4.0 18:46:08 10° W 18:49:44 70° SSW 18:56:53 19° ESE
CSL-04 Rocket 4.0 18:47:26 23° ESE 18:50:09 41° ENE 18:55:05 10° N
Cosmos 2344 4.3 18:44:12 10° SSE 18:50:24 25° ESE 18:51:12 25° ESE
Cosmos 1455 Rocket 2.9 18:47:09 10° N 18:51:27 70° ENE 18:55:44 10° SSE
Cosmos 1975 Rocket 4.2 18:48:24 10° SSE 18:50:38 25° SE 18:50:38 25° SE
DNEPR-1 R/B 4.3 18:48:03 10° NNW 18:52:34 44° NE 18:54:12 34° E
Cosmos 1125 Rocket 3.7 18:49:08 10° NNW 18:54:18 71° WSW 18:59:28 10° SSE
YAOGAN 1 4.2 18:53:13 10° SSW 18:57:06 35° W 19:01:02 10° NNW
Cosmos 2221 Rocket 3.8 18:52:45 10° SSW 18:57:11 71° WNW 19:01:42 10° N
Okean 2 Rocket 4.3 18:56:04 10° NNW 19:00:14 42° W 19:04:21 10° SSW
Meteor 1-27 4.2 18:56:33 10° N 19:02:21 83° ENE 19:08:10 10° SSE
Okean 1 Rocket 4.2 18:59:20 10° NNW 19:03:33 45° W 19:07:42 10° SSW
DMSP B5D1-3 4.4 18:59:13 10° NNE 19:04:21 90° WNW 19:09:28 10° SSW
BREEZE-M DEB (TANK) 4.5 19:01:21 10° W 19:06:20 75° SSW 19:19:57 21° ESE
Cosmos 2208 Rocket 4.2 19:01:30 10° S 19:06:29 47° ESE 19:07:29 41° ENE
Terra 3.5 19:11:52 18° NNE 19:11:52 18° NNE 19:13:32 10° N
COSMOS 2428 4.3 19:06:20 10° NW 19:11:31 36° WSW 19:16:40 10° S
NOSS 3-3 (C) 3.8 19:07:31 10° SW 19:12:49 81° NW 19:16:44 24° NE
CZ-4B R/B 3.8 19:14:51 67° NE 19:14:51 67° NE 19:18:30 10° N
Meteor 2-17 Rocket 4.3 19:09:19 10° S 19:15:22 73° E 19:21:24 10° NNE
Cosmos 1980 4.0 19:09:46 10° NNW 19:15:25 68° WSW 19:20:51 11° SSE
Resurs 01 Rocket 2.6 19:13:39 10° S 19:17:52 46° W 19:22:09 10° NNW
Cosmos 2237 Rocket 2.5 19:15:22 10° NNW 19:21:01 67° WSW 19:25:52 14° SSE
ARIANE 6 FM1 Upper Stage 4.1 19:17:42 10° NNW 19:20:14 25° N 19:20:14 25° N
Cosmos 44 Rocket 3.8 19:17:34 10° SSW 19:21:21 42° SSE 19:21:21 42° SSE
COSMO-SKYMED 1 4.2 19:19:02 10° N 19:22:42 32° WNW 19:26:21 10° SW
Cosmos 773 Rocket 3.9 19:18:32 10° SSW 19:23:45 69° ESE 19:25:06 48° NE
Aureole 3 Rocket 4.4 19:20:14 10° NNW 19:24:07 34° W 19:27:14 10° SSW
Cosmos 2228 2.8 19:21:31 10° N 19:25:36 85° N 19:25:36 85° N
Orbus 7S? 3.8 19:20:00 10° WNW 19:28:15 84° SW 19:28:58 64° SE
Cosmos 2150 Rocket 3.8 19:27:44 10° NNW 19:32:56 89° WSW 19:33:58 58° SSE
Cosmos 2298 Rocket 3.9 19:28:22 10° NNW 19:33:41 88° ENE 19:34:42 60° SSE
SJ-6B 4.5 19:39:26 14° SSW 19:41:44 28° W 19:44:44 10° NW
NOSS 3-3 (A) 4.4 19:36:41 10° WSW 19:41:55 52° NW 19:45:02 28° NNE
SL-16 R/B 2.3 19:39:09 10° NNW 19:44:20 60° NNE 19:44:20 60° NNE
Cosmos 2227 Rocket 2.6 19:41:29 10° SSW 19:45:30 46° S 19:45:30 46° S
SPOT 5 3.0 19:47:23 64° SSW 19:47:58 72° WSW 19:53:00 10° NNW
MOS 1 4.3 19:49:14 63° NNE 19:49:14 63° NNE 19:54:18 10° N
NOSS 3-4 (A) 4.1 19:53:04 10° NW 19:59:44 63° SW 20:02:39 39° S
NOSS 3-4 (C) 4.1 19:53:19 10° NW 20:00:01 64° SW 20:02:53 39° S
CZ-4 R/B 3.8 20:03:09 15° NNW 20:03:09 15° NNW 20:03:56 10° NNW
Cosmos 2034 Rocket 4.0 19:55:16 10° NNW 20:01:27 80° W 20:02:53 55° S
Lacrosse 5 rocket 3.6 20:00:25 10° WNW 20:01:48 18° NW 20:01:48 18° NW
CZ-4B R/B 3.8 20:08:36 48° NNW 20:08:36 48° NNW 20:12:22 10° NNW
BREEZE-M DEB (TANK) 3.8 19:53:39 10° WSW 20:10:24 69° S 20:10:46 68° SSE
ADEOS 4.4 20:12:43 44° NNW 20:12:43 44° NNW 20:16:16 10° NNW
Cosmos 1634 Rocket 4.4 20:05:24 10° N 20:10:07 51° N 20:10:07 51° N
ATLAS 2AS CENTAUR R/B 4.1 20:12:06 10° NW 20:17:36 25° N 20:18:40 24° NNE
CZ-4C R/B 3.5 20:16:20 10° W 20:20:33 30° NNW 20:21:07 30° NNW
USA 267 3.8 20:29:08 47° N 20:29:09 47° N 20:35:21 10° WNW
Cosmos 2297 Rocket 3.7 20:27:24 10° WSW 20:32:29 33° NW 20:34:29 26° N
Terra 4.3 20:50:29 17° NNW 20:50:29 17° NNW 20:51:34 10° NNW
Cosmos 2344 4.2 20:56:17 10° SW 21:01:17 43° WSW 21:01:17 43° WSW
SL-16 R/B 4.5 21:23:56 10° NW 21:26:13 20° WNW 21:26:13 20° WNW
